x

Frying Pan Shoals, Nc Buoy (41013) Weather Station

1:40 - Thu 19th Jan 2017 All times are EST. -5 hours from GMT.

  • Wind
    11mph, 13mph gusts
  • Sea Temp 71°f
  • Luft Temp 61°f
  • Sea Pressure 1016.8mb
  • Frying Pan Shoals, Nc Buoy
  • Frying Pan Shoals, Nc Buoy

More Historic Weather Station data

Upgrade to MSW Pro to gain access to the past 30 days of data for over 8000 Wavebouys and Weather Stations around the globe.

Join Pro

Comparision Forecast

View Surf forecast
   
Do 01/19 1:40  -   -   -  11 13 mph 1016.8mb 71f 61f
1:30  -   -   -  11 13 mph 1016.8mb 71f 61f
1:20  -   -   -  11 13 mph 1017mb 71f 61f
1:10  -   -   -  11 13 mph 1017mb 71f 61f
1:00  -   -   -  11 16 mph 1017mb 71f 61f
12:50 4ft 10s 5s 11 16 mph 1017.3mb 71f 61f
12:40 4ft  -  5s 11 16 mph 1017.3mb 71f 61f
12:30  -   -   -  11 16 mph 1017mb 71f 61f
12:20  -   -   -  11 18 mph 1017.5mb 71f 61f
12:10  -   -   -  11 16 mph 1017.6mb 71f 62f
12:00  -   -   -  11 13 mph 1017.8mb 71f 62f
11:50 3.5ft 9s 5s 11 16 mph 1018.1mb 71f 62f
11:40  -   -   -  13 16 mph 1018.1mb 71f 61f
11:30  -   -   -  13 18 mph 1018.1mb 71f 62f
11:20  -   -   -  13 18 mph 1018.1mb 71f 62f
11:10  -   -   -  13 18 mph 1018.3mb 71f 62f
11:00  -   -   -  13 18 mph 1018.4mb 71f 62f
10:50 3.5ft 10s 5s 16 18 mph 1018.5mb 71f 62f
10:40 3.5ft  -  5s 16 18 mph 1018.6mb 71f 62f
10:30  -   -   -  16 20 mph 1018.6mb 71f 62f
10:20  -   -   -  13 18 mph 1018.9mb 71f 62f
10:10  -   -   -  16 20 mph 1019mb 71f 62f
10:00  -   -   -  13 18 mph 1019mb 71f 62f
9:50 4ft 9s 5s 13 18 mph 1018.9mb 71f 62f
9:40 4ft  -  5s 13 18 mph 1018.8mb 71f 62f
9:30  -   -   -  13 16 mph 1018.5mb 70f 62f
9:20  -   -   -  13 18 mph 1018.5mb 70f 62f
9:10  -   -   -  13 18 mph 1018.4mb 70f 62f
9:00  -   -   -  13 18 mph 1018.1mb 70f 62f
8:50 4ft 9s 5s 13 18 mph 1018.4mb 70f 63f
8:40  -   -   -  13 16 mph 1018.1mb 70f 62f
8:30  -   -   -  13 16 mph 1018.1mb 70f 62f
8:20  -   -   -  11 16 mph 1018mb 70f 62f
8:10  -   -   -  11 16 mph 1018mb - -
8:00  -   -   -  11 16 mph 1017.9mb 70f 63f
7:50 4ft 6s 5s 11 13 mph 1017.6mb 70f 63f
7:40 4ft  -  5s 11 16 mph 1017.5mb 70f 62f
7:30  -   -   -  11 16 mph 1017.5mb 70f 62f
7:20  -   -   -  11 13 mph 1017.5mb 70f 62f
7:10  -   -   -  9 13 mph 1017.5mb 70f 62f
7:00  -   -   -  9 11 mph 1017.5mb 70f 62f
6:50 4ft 7s 5s 9 11 mph 1017.4mb 70f 62f
6:40 4ft  -  5s 9 13 mph 1017.1mb 70f 62f
6:30  -   -   -  9 11 mph 1017mb 70f 63f
6:20  -   -   -  9 13 mph 1017mb 70f 63f
6:10  -   -   -  9 11 mph 1017.1mb 70f 63f
6:00  -   -   -  9 11 mph 1017.1mb 70f 63f
5:50 4ft 7s 5s 9 13 mph 1017.1mb 70f 63f
5:40 4ft  -  5s 9 11 mph 1017mb 70f 63f
5:30  -   -   -  9 13 mph 1017mb 70f 63f
5:20  -   -   -  9 13 mph 1016.9mb 70f 63f
5:10  -   -   -  9 13 mph 1016.5mb 70f 63f
5:00  -   -   -  9 13 mph 1016.5mb 70f 63f
4:50 4.5ft 6s 5s 9 13 mph 1016.5mb 71f 63f
4:40 4.5ft  -  5s 9 13 mph 1016.5mb 71f 63f
4:30  -   -   -  9 13 mph 1016.5mb 71f 63f
4:20  -   -   -  9 13 mph 1016.4mb 71f 63f
4:10  -   -   -  9 11 mph 1016.5mb 71f 63f
4:00  -   -   -  7 11 mph 1016.5mb 71f 64f
3:50 4.5ft 6s 5s 7 11 mph 1016.8mb 71f 64f
3:40 4.5ft  -  5s 9 13 mph 1016.6mb 71f 64f
3:30  -   -   -  9 13 mph 1016.4mb - 64f
3:20  -   -   -  9 11 mph 1016.5mb 71f 64f
3:10  -   -   -  9 13 mph 1016.5mb 71f 64f
3:00  -   -   -  9 13 mph 1016.6mb 71f 64f
2:50 4.5ft 7s 5s 11 18 mph 1016.3mb 71f 64f
2:40 4.5ft  -  5s 13 18 mph 1016.5mb 71f 64f
2:30  -   -   -  13 16 mph 1016.4mb 71f 64f
2:20  -   -   -  11 18 mph 1016.4mb 71f 64f
2:10  -   -   -  11 18 mph 1016.5mb 71f 64f
2:00  -   -   -  13 18 mph 1016.5mb 71f 64f
1:50 4ft  -  5s 11 16 mph 1016.4mb 71f 64f
1:44 4ft 7s 5s  -  mph - - -
1:40  -   -   -  13 18 mph 1016.5mb 71f 64f
1:30  -   -   -  13 18 mph 1016.1mb 71f 64f
1:20  -   -   -  13 18 mph 1016mb 71f 64f
1:10  -   -   -  13 18 mph 1016.3mb 71f 64f
1:00  -   -   -  13 18 mph 1016.3mb 71f 64f
12:50 4ft 7s 5s 13 18 mph 1016.4mb 71f 64f
12:40 4ft  -  5s 13 20 mph 1016.5mb 71f 64f
12:30  -   -   -  13 18 mph 1016.5mb 71f 64f
12:20  -   -   -  13 18 mph 1016.5mb 71f 64f
12:10  -   -   -  16 20 mph 1016.5mb 71f 64f
12:00  -   -   -  16 20 mph 1016.6mb 71f 64f
Mi 01/18 11:50 4ft 6s 4s 16 20 mph 1016.9mb 71f 64f
11:40 4ft  -  4s 16 20 mph 1017mb 71f 64f
11:30  -   -   -  16 20 mph 1016.9mb 71f 64f
11:20  -   -   -  16 22 mph 1016.6mb 71f 64f
11:10  -   -   -  16 20 mph 1016.8mb 71f 65f
11:00  -   -   -  18 22 mph 1017mb 71f 65f
10:50 4ft 6s 5s 18 25 mph 1016.9mb 71f 65f
10:40 4ft  -  5s 16 22 mph 1016.8mb 71f 65f
10:30  -   -   -  16 22 mph 1016.8mb 71f 65f
10:20  -   -   -  18 22 mph 1016.6mb 71f 65f
10:10  -   -   -  18 22 mph 1016.8mb 71f 65f
10:00  -   -   -  18 22 mph 1016.5mb 71f 65f
9:50 3.5ft 6s 4s 18 25 mph 1016.5mb 71f 66f
9:40 3.5ft  -  4s 20 25 mph 1016.4mb 71f 66f
9:30  -   -   -  20 25 mph 1016.3mb 71f 66f
9:20  -   -   -  20 27 mph 1016.3mb 71f 67f
9:10  -   -   -  18 25 mph 1016.3mb 71f 67f
9:00  -   -   -  20 25 mph 1016.3mb 71f 68f
8:50 4ft 6s 5s 18 25 mph 1016.3mb 72f 68f
8:40  -   -   -  20 25 mph 1016mb 72f 68f
8:30  -   -   -  18 25 mph - 72f 68f
8:20  -   -   -  16 20 mph 1016.1mb - 67f
8:10  -   -   -  13 18 mph 1016.1mb 72f 67f
8:00  -   -   -  16 20 mph 1016mb 72f 68f
7:50 4.5ft 6s 5s 16 22 mph 1016mb 72f 69f
7:40 4.5ft  -  5s 16 18 mph 1015.9mb 72f 70f
7:30  -   -   -  13 18 mph 1015.8mb 72f 69f
7:20  -   -   -  11 16 mph 1015.8mb 72f 69f
7:10  -   -   -  11 13 mph 1015.5mb 72f 69f
7:00  -   -   -  11 16 mph 1015.4mb 72f 69f
6:50 4.5ft 6s 5s 11 16 mph 1015.4mb 72f 69f
6:40 4.5ft  -  5s 13 16 mph 1015.1mb 72f 69f
6:30  -   -   -  11 18 mph 1015mb 72f 69f
6:20  -   -   -  13 16 mph 1015mb 72f 69f
6:10  -   -   -  13 16 mph 1014.8mb 72f 69f
6:00  -   -   -  13 16 mph 1014.6mb - -
5:50 5ft 6s 5s 13 16 mph 1014.5mb 72f 69f
5:40 5ft  -  5s 13 18 mph 1014.5mb 72f 69f
5:30  -   -   -  13 16 mph 1014.3mb 72f 69f
5:20  -   -   -  13 18 mph 1014.3mb 72f 69f
5:10  -   -   -  16 20 mph 1014mb 72f 69f
5:00  -   -   -  18 22 mph 1013.9mb - -
4:50  -   -   -  18 22 mph 1013.6mb 72f 69f
4:40  -   -   -  18 22 mph 1013.5mb 72f 69f
4:30  -   -   -  20 25 mph 1013.6mb 72f 69f
4:20  -   -   -  20 25 mph 1013.5mb 72f 69f
4:10  -   -   -  22 25 mph 1013.5mb 72f 69f
4:00  -   -   -  22 25 mph 1013.4mb 72f 69f
3:50 5ft 6s 4s 22 25 mph 1013.3mb 72f 69f
3:40 5ft  -  4s 22 27 mph 1013.4mb - 69f
3:30  -   -   -  25 27 mph 1013.4mb 72f 69f
3:20  -   -   -  25 29 mph 1013.5mb 72f 69f
3:10  -   -   -  25 31 mph 1013.5mb 72f 69f
3:00  -   -   -  25 29 mph 1013.4mb 72f 69f
2:50 5ft 6s 4s 25 31 mph 1013.1mb 72f 69f
2:40 5ft  -  4s 25 31 mph 1013.1mb 72f 69f
2:30  -   -   -  25 29 mph 1012.8mb - -
2:20  -   -   -  25 31 mph 1012.6mb 72f 69f
2:10  -   -   -  27 34 mph 1013mb 72f 69f
2:00  -   -   -  25 31 mph 1013mb 72f 69f
1:50 5ft 6s 4s 25 31 mph 1013.4mb 72f 69f
1:40  -   -   -  25 29 mph 1013.8mb 72f 69f
1:30  -   -   -  25 31 mph 1014mb 72f 69f
1:20  -   -   -  25 31 mph 1014.1mb 72f 69f
1:10  -   -   -  25 29 mph 1014mb 71f 69f
1:00  -   -   -  25 31 mph 1014mb 71f 69f
12:50 5.5ft 6s 4s 25 29 mph 1013.9mb 71f 69f
12:40  -   -   -  25 29 mph 1014mb 71f 69f
12:30  -   -   -  25 31 mph 1014.4mb 71f 69f
12:20  -   -   -  25 31 mph 1014.3mb 71f 69f
12:10  -   -   -  25 29 mph 1014.4mb 71f 69f
12:00  -   -   -  27 34 mph 1014.6mb 71f 69f
11:50 5.5ft 6s 5s 27 31 mph 1015mb 71f 69f
11:40 5.5ft  -  5s 27 31 mph 1015.3mb 71f 69f
11:30  -   -   -  27 31 mph 1015.8mb 71f 69f
11:20  -   -   -  27 34 mph 1016mb 71f 69f
11:10  -   -   -  27 31 mph 1016.3mb 71f 69f
11:00  -   -   -  27 34 mph 1016.5mb 71f 69f
10:50 5.5ft 6s 4s 25 31 mph 1017mb 71f 69f
10:40 5.5ft  -  4s 27 36 mph 1017.4mb 71f 69f
10:30  -   -   -  27 31 mph 1017.4mb 71f 69f
10:20  -   -   -  25 31 mph 1017.5mb 71f 69f
10:10  -   -   -  27 31 mph 1017.5mb 71f 69f
10:00  -   -   -  25 29 mph 1017.5mb 71f 69f
9:50 5ft 5s 4s 25 34 mph 1017.4mb 71f 69f
9:40 5ft  -  4s 25 31 mph 1017.5mb 71f 69f
9:30  -   -   -  25 31 mph 1017.5mb 71f 69f
9:20  -   -   -  25 31 mph 1017.4mb 71f 69f
9:10  -   -   -  25 29 mph 1017.5mb 71f 69f
9:00  -   -   -  25 29 mph 1017.6mb 71f 69f
8:50 6ft 6s 5s 25 31 mph 1017.6mb 71f 69f
8:40 6ft  -  5s 25 31 mph 1017.8mb 71f 69f
8:30  -   -   -  25 29 mph 1017.8mb 71f 69f
8:20  -   -   -  25 31 mph 1017.8mb 71f 69f
8:10  -   -   -  25 34 mph 1017.6mb 71f 69f
8:00  -   -   -  27 31 mph 1017.5mb 71f 69f
7:50 6ft 6s 5s 27 31 mph 1017.6mb 71f 69f
7:40 6ft  -  5s 27 34 mph 1017.5mb 71f 69f
7:30  -   -   -  27 34 mph 1017.5mb - -
7:20  -   -   -  27 34 mph 1017.5mb 71f 69f
7:10  -   -   -  27 34 mph 1017.5mb 71f 69f
7:00  -   -   -  27 31 mph 1017.5mb 71f 69f
6:50 5.5ft 6s 4s 27 31 mph 1017.8mb 71f 69f
6:40 5.5ft  -  4s 27 34 mph 1017.8mb 71f 70f
6:30  -   -   -  27 34 mph 1017.8mb 71f 70f
6:20  -   -   -  27 31 mph 1017.6mb 71f 70f
6:10  -   -   -  27 31 mph 1017.6mb 71f 70f
6:00  -   -   -  29 34 mph 1017.6mb 71f 70f
5:50 5ft 5s 4s 27 34 mph 1017.5mb 71f 70f
5:40  -   -   -  27 36 mph 1017.6mb 71f 70f
5:30  -   -   -  27 36 mph 1017.6mb 71f 70f
5:20  -   -   -  27 31 mph 1017.5mb 71f 70f
5:10  -   -   -  27 31 mph 1017.5mb 71f 70f
5:00  -   -   -  25 29 mph 1017.5mb 71f 70f
4:50 5ft 6s 4s 25 31 mph 1017.1mb 71f 70f
4:40 5ft  -  4s 25 31 mph 1017.1mb 71f 70f
4:30  -   -   -  25 29 mph 1017mb 71f 71f
4:20  -   -   -  25 31 mph 1017.3mb 71f 71f
4:10  -   -   -  25 31 mph 1017.4mb 71f 71f
4:00  -   -   -  25 31 mph 1017.5mb 71f 71f
3:50 4.5ft 5s 4s 25 31 mph 1017.5mb 71f 71f
3:40 4.5ft  -  4s 25 29 mph 1017.6mb 71f 71f
3:30  -   -   -  22 29 mph 1017.6mb 71f 71f
3:20  -   -   -  25 29 mph 1017.6mb 71f 71f
3:10  -   -   -  25 29 mph 1017.8mb 71f 71f
3:00  -   -   -  22 27 mph 1017.9mb 71f 71f
2:50 4ft 5s 4s 22 27 mph 1018mb 71f 71f
2:40 4ft  -  4s 22 27 mph 1018mb 71f 71f
2:30  -   -   -  22 29 mph 1018.3mb 71f 71f
2:20  -   -   -  22 27 mph 1018.4mb 71f 71f
2:10  -   -   -  22 27 mph 1018.5mb 71f 71f
2:00  -   -   -  20 25 mph 1018.6mb 71f 71f
1:50 4ft 5s 4s 22 25 mph 1018.6mb 71f 71f
1:40  -   -   -  20 27 mph 1018.8mb 71f 71f
1:30  -   -   -  22 27 mph 1018.6mb 71f 71f
1:20  -   -   -  22 27 mph 1018.8mb 72f 71f
1:10  -   -   -  22 29 mph 1018.9mb 72f 71f
1:00  -   -   -  22 27 mph 1019mb 72f 71f
12:50 3.5ft 4s 4s 22 27 mph 1019mb 72f 71f
12:40 3.5ft  -  4s 22 27 mph 1019.3mb 72f 71f
12:30  -   -   -  22 27 mph 1019.4mb 72f 71f
12:20  -   -   -  22 27 mph 1019.5mb 72f 71f
12:10  -   -   -  22 27 mph 1019.4mb 72f 71f
12:00  -   -   -  22 27 mph 1019.5mb 72f 71f
Di 01/17 11:50 3.5ft 4s 4s 22 27 mph 1019.9mb 72f 71f
11:40 3.5ft  -  4s 22 27 mph 1020mb 72f 71f
11:30  -   -   -  22 27 mph 1020.3mb 72f 71f
11:20  -   -   -  22 27 mph 1020.5mb 72f 71f
11:10  -   -   -  22 29 mph 1020.5mb 72f 71f
11:00  -   -   -  22 27 mph 1020.5mb 72f 71f
10:50 3ft 4s 4s 22 29 mph 1020.8mb 72f 71f
10:40 3ft  -  4s 22 31 mph 1020.9mb 72f 71f
10:30  -   -   -  22 29 mph 1021mb 72f 71f
10:20  -   -   -  22 29 mph 1021.3mb 72f 72f
10:10  -   -   -  22 27 mph 1021.4mb 72f 72f
10:00  -   -   -  20 27 mph 1021.1mb 72f 71f
9:50 2.5ft 9s 4s 20 25 mph 1021.1mb 72f 71f
9:40 2.5ft  -  4s 18 22 mph 1021.5mb 72f 71f
9:30  -   -   -  18 22 mph 1021.5mb 72f 71f
9:20  -   -   -  18 22 mph 1021.3mb 72f 71f
9:10  -   -   -  18 20 mph 1021.5mb 72f 71f
9:00  -   -   -  18 20 mph 1021.5mb 72f 71f
8:50 2.5ft 9s 4s 18 20 mph 1021.6mb 72f 71f
8:10  -   -   -  16 20 mph - 72f 71f
8:00  -   -   -  16 18 mph - 72f 71f
7:50 2ft 8s 4s 13 18 mph 1022mb 72f 71f
7:40 2ft  -  4s 13 18 mph 1022.1mb 72f 71f
7:30  -   -   -  13 16 mph 1022.1mb 72f 71f
7:20  -   -   -  11 13 mph 1022mb 72f 71f
7:10  -   -   -  11 13 mph 1022mb 72f 70f
7:00  -   -   -  9 13 mph 1021.9mb 72f 70f
6:50 2ft 9s 4s 9 11 mph 1021.8mb 72f 70f
6:40 2ft  -  4s 9 11 mph 1021.8mb 72f 70f
6:30  -   -   -  11 13 mph 1022mb 72f 70f
6:20  -   -   -  11 13 mph 1022mb 72f 70f
6:10  -   -   -  11 13 mph 1022.4mb 72f 70f
6:00  -   -   -  11 13 mph 1022.4mb 72f 70f
5:50 2.5ft 8s 5s 11 13 mph 1022.4mb 72f 70f
5:40  -   -   -  9 11 mph 1022.4mb 72f 70f
5:30  -   -   -  9 11 mph 1022.3mb 72f 70f
5:20  -   -   -  11 13 mph 1022.3mb 72f 70f
5:10  -   -   -  11 13 mph 1022.3mb 72f 70f
5:00  -   -   -  11 13 mph 1022.3mb 72f 70f
4:50 2.5ft 10s 5s 9 13 mph 1022.3mb 72f 70f
4:40 2.5ft  -  5s 11 13 mph 1022.3mb 72f 70f
4:30  -   -   -  11 13 mph 1022mb 72f 70f
4:20  -   -   -  9 11 mph 1022mb 72f 70f
4:10  -   -   -  9 11 mph 1021.9mb 72f 70f
4:00  -   -   -  9 11 mph 1022mb 72f 70f
3:50 2.5ft 9s 5s 9 11 mph 1021.9mb 72f 70f
3:40 2.5ft  -  5s 9 11 mph 1022mb 72f 70f
3:30  -   -   -  9 11 mph 1021.9mb 72f 69f
3:20  -   -   -  9 11 mph 1021.9mb 72f 69f
3:10  -   -   -  9 11 mph 1021.9mb 72f 70f
3:00  -   -   -  9 11 mph 1021.9mb 72f 70f
2:50 2.5ft 8s 4s 11 16 mph 1022mb 72f 71f
2:40  -   -   -  13 16 mph 1022mb 72f 71f
2:30  -   -   -  13 16 mph 1022mb 72f 71f
2:20  -   -   -  13 16 mph 1022.1mb 72f 71f
2:10  -   -   -  13 16 mph 1022.3mb 72f 71f
2:00  -   -   -  13 16 mph 1022.4mb 72f 71f
1:50 2.5ft 10s 4s 13 16 mph 1022.5mb 72f 71f
1:40  -   -   -  13 16 mph 1022.5mb 73f 71f
1:30  -   -   -  13 16 mph 1022.6mb 73f 71f
1:20  -   -   -  13 16 mph 1022.6mb 73f 71f
1:10  -   -   -  11 16 mph 1022.6mb 73f 71f
1:00  -   -   -  13 16 mph 1022.6mb 73f 71f
12:50 2.5ft 9s 5s 11 16 mph 1022.9mb 73f 72f
12:40 2.5ft  -  5s 13
mph
1023mb 73f 71f
12:30  -   -   -  11 13 mph 1023.3mb 73f 72f
12:20  -   -   -  13 16 mph 1023.5mb 73f 72f
12:10  -   -   -  11 16 mph 1023.5mb 73f 72f
12:00  -   -   -  11 16 mph 1023.9mb 73f 72f
11:50 2.5ft 10s 5s 11 13 mph 1024mb 73f 72f
11:40 2.5ft  -  5s 11 16 mph 1024.3mb 73f 72f
11:30  -   -   -  11 16 mph 1024.2mb 73f 72f
11:20  -   -   -  11 16 mph 1024.3mb 73f 72f
11:10  -   -   -  11 13 mph 1024.5mb 73f 72f
11:00  -   -   -  11 13 mph 1024.5mb - -
10:50 2.5ft 8s 6s 11 16 mph 1024.8mb 73f 73f
10:40  -   -   -  11 13 mph 1024.8mb 73f 73f
10:30  -   -   -  11 16 mph 1024.8mb 73f 72f
10:20  -   -   -  11 13 mph 1024.8mb 73f 72f
10:10  -   -   -  11 13 mph 1024.8mb 73f 72f
10:00  -   -   -  11 13 mph 1025mb 73f 72f
9:50 2.5ft 10s 6s 9 13 mph 1024.8mb 73f 73f
9:40 2.5ft  -  6s 11 13 mph 1025mb 73f 72f
9:30  -   -   -  9 11 mph 1024.8mb 73f 72f
9:20  -   -   -  11 13 mph 1024.8mb 73f 72f
9:10  -   -   -  11 13 mph 1024.8mb 73f 72f
9:00  -   -   -  9 11 mph 1024.5mb - -
8:50 2.5ft 10s 6s 9 11 mph 1024.5mb 73f 72f
8:10  -   -   -  9 11 mph 1024.3mb - -
8:00  -   -   -  9 11 mph 1024.3mb 73f 72f
7:50 2.5ft 8s 6s 9 11 mph 1024.3mb 73f 71f
7:40  -   -   -  9 11 mph 1024.3mb 73f 71f
7:30  -   -   -  9 11 mph 1024.2mb 72f 71f
7:20  -   -   -  9 11 mph 1024mb 71f 71f
7:10  -   -   -  9 11 mph 1024mb 71f 71f
7:00  -   -   -  9 11 mph 1024mb 71f 71f
6:50 2.5ft 7s 5s 9 11 mph 1024mb 71f 71f
6:40 2.5ft  -  5s 9 11 mph 1024mb 71f 71f
6:30  -   -   -  9 11 mph 1023.8mb 71f 71f
6:20  -   -   -  9 11 mph 1023.8mb 71f 71f
6:10  -   -   -  9 11 mph 1023.6mb 71f 71f
6:00  -   -   -  9 11 mph 1023.6mb 71f 71f
5:50 2.5ft 8s 5s 9 11 mph 1023.6mb 71f 70f
5:40  -   -   -  9 11 mph 1023.5mb 71f 70f
5:30  -   -   -  9
mph
1023.6mb 71f 70f
5:20  -   -   -  9 11 mph 1023.5mb 71f 70f
5:10  -   -   -  7 9 mph 1023.6mb 71f 70f
5:00  -   -   -  7 9 mph 1023.8mb 71f 70f
4:50 3ft 10s 5s 7 9 mph 1023.8mb 71f 70f
4:40 3ft  -  5s 7 11 mph 1023.9mb 71f 69f
4:30  -   -   -  7 9 mph 1023.9mb 71f 69f
4:20  -   -   -  7 9 mph 1023.9mb 71f 69f
4:10  -   -   -  9 11 mph 1024mb 71f 69f
4:00  -   -   -  9 11 mph 1024mb 70f 69f
3:50 3.5ft 8s 5s 9 11 mph 1024mb 70f 69f
3:40  -   -   -  9 11 mph 1024mb 70f 69f
3:30  -   -   -  7 9 mph 1024.3mb 70f 68f
3:20  -   -   -  7 9 mph 1024.3mb 70f 68f
3:00  -   -   -  7 9 mph 1024.3mb 70f 68f
2:50 3ft 11s 5s 9 11 mph 1024.5mb 70f 68f
2:40 3ft  -  5s 7 11 mph 1024.5mb 70f 67f
2:30  -   -   -  9 11 mph 1024.5mb 70f 67f
2:20  -   -   -  9 11 mph 1024.5mb 70f 67f
2:10  -   -   -  9 13 mph 1024.5mb 70f 67f
2:00  -   -   -  9 11 mph 1024.5mb 70f 67f
1:50 3.5ft 9s 5s 9 11 mph 1024.7mb 70f 67f
1:40  -   -   -  11 13 mph 1024.7mb 70f 67f
1:30  -   -   -  9 11 mph 1024.7mb 70f 67f
1:20  -   -   -  11 13 mph 1024.8mb 70f 67f
1:10  -   -   -  11
mph
1024.7mb 70f 67f
1:00  -   -   -  11 13 mph 1024.8mb 70f 67f
12:50 3ft 8s 5s 11 13 mph 1025mb 70f 67f
12:40 3ft  -  5s 11 13 mph 1025mb 70f 66f
12:30  -   -   -  9 11 mph 1025.2mb 70f 67f
12:20  -   -   -  9 11 mph 1025.3mb 70f 67f
12:10  -   -   -  9 13 mph 1025.3mb 70f 66f
12:00  -   -   -  9 13 mph 1025.5mb 70f 66f
Mo 01/16 11:50 3.5ft 8s 5s 11 13 mph 1025.5mb 70f 66f
11:40 3.5ft  -  5s 11 13 mph 1025.5mb 70f 66f
11:30  -   -   -  11 16 mph 1025.8mb 70f 66f
11:20  -   -   -  11 16 mph 1025.8mb 70f 66f
11:10  -   -   -  11 16 mph 1026mb 70f 66f
11:00  -   -   -  11 16 mph 1026mb 70f 66f
10:50 3.5ft 8s 5s 11 16 mph 1026mb 70f 66f
10:40  -   -   -  11 16 mph 1026mb 70f 66f
10:30  -   -   -  13 16 mph 1026mb 70f 66f
10:20  -   -   -  13 16 mph 1026.3mb 70f 66f
10:10  -   -   -  13 16 mph 1026.3mb 70f 66f
10:00  -   -   -  13 16 mph 1026.5mb 70f 65f
9:50 3.5ft  -  5s 13 16 mph 1026.3mb 70f 65f
9:44 3.5ft 6s  -   -  mph - - -
9:40  -   -   -  13 18 mph 1026.5mb 70f 65f
9:30  -   -   -  13 18 mph 1026.7mb 70f 65f
9:20  -   -   -  13 18 mph 1026.8mb 70f 65f
9:10  -   -   -  13 18 mph 1026.5mb 70f 65f
9:00  -   -   -  13 18 mph 1026.8mb 70f 65f
8:50 3.5ft 6s 5s 13 18 mph 1027mb 70f 65f
8:40 3.5ft  -  5s 13 18 mph 1026.8mb 70f 65f
8:30  -   -   -  16 18 mph 1026.8mb 70f 65f
8:20  -   -   -  13 18 mph 1026.8mb 70f 65f
8:10  -   -   -  13 18 mph 1026.7mb 70f 65f
8:00  -   -   -  16 22 mph - 70f 65f
7:50 3.5ft 9s 4s 16 20 mph 1026.5mb 70f 65f
7:40 3.5ft  -  4s 16 20 mph 1026.5mb 70f 65f
7:30  -   -   -  16 20 mph 1026.8mb 70f 65f
7:20  -   -   -  16 18 mph 1027mb 70f 65f
7:10  -   -   -  16 20 mph 1026.8mb 70f 65f
7:00  -   -   -  16 20 mph 1026.8mb 70f 65f
6:50 3.5ft 6s 4s 18 20 mph 1026.8mb 70f 65f
6:40  -   -   -  16 18 mph 1027mb 70f 65f
6:30  -   -   -  16 20 mph 1027mb 70f 65f
6:20  -   -   -  16 18 mph 1027mb 70f 65f
6:10  -   -   -  16 18 mph 1027mb 70f 65f
6:00  -   -   -  16 18 mph 1027mb 70f 65f
5:50 4ft 6s 5s 16 18 mph 1027mb 70f 65f
5:40  -   -   -  16 20 mph 1026.8mb 70f 65f
5:30  -   -   -  16 20 mph 1026.8mb 70f 65f
5:20  -   -   -  16 20 mph 1027mb 71f 65f
5:10  -   -   -  18 20 mph 1026.8mb 71f 65f
5:00  -   -   -  16 20 mph 1026.8mb 71f 65f
4:50 4ft 6s 5s 18 20 mph 1026.7mb 71f 65f
4:40  -   -   -  16 20 mph 1026.7mb 71f 65f
4:30  -   -   -  16 20 mph 1026.7mb - -
4:20  -   -   -  18 20 mph 1026.7mb 71f 65f
4:10  -   -   -  16 18 mph 1026.7mb 70f 65f
4:00  -   -   -  16 18 mph 1026.7mb 70f 64f
3:50 4ft 6s 4s 16 18 mph 1026.5mb 70f 64f
3:40 4ft  -  4s 16 20 mph 1026.5mb 70f 64f
3:30  -   -   -  18 20 mph 1026.3mb 70f 64f
3:20  -   -   -  18 22 mph 1026.5mb 71f 63f
3:10  -   -   -  18 20 mph 1026.5mb 71f 64f
3:00  -   -   -  18 20 mph 1026.5mb - -
2:50 4.5ft 6s 5s 18 22 mph 1026.7mb 71f 64f
2:40 4.5ft  -  5s 18 20 mph 1026.7mb 71f 64f
2:30  -   -   -  18 20 mph 1026.8mb 71f 65f
2:20  -   -   -  16 20 mph 1026.8mb 71f 65f
2:10  -   -   -  16 20 mph 1026.7mb - 65f
2:00  -   -   -  16 20 mph 1026.8mb 71f 65f
1:50 4.5ft 6s 5s 16 20 mph 1026.8mb 71f 65f
1:40  -   -   -  18 22 mph 1026.8mb 71f 65f
1:30  -   -   -  18 22 mph 1026.7mb 71f 65f
1:20  -   -   -  18 20 mph 1026.8mb 71f 65f
1:10  -   -   -  18 20 mph 1026.8mb 71f 65f
1:00  -   -   -  18 22 mph 1027mb 71f 65f
12:50 4.5ft 6s 5s 18 22 mph 1026.8mb 71f 65f
12:40  -   -   -  18 22 mph 1027mb 71f 65f
12:30  -   -   -  20 25 mph 1027mb 71f 65f
12:20  -   -   -  20 22 mph 1027.2mb 71f 65f
12:10  -   -   -  20 25 mph 1027.3mb 71f 65f
12:00  -   -   -  20 22 mph 1027.5mb 71f 65f
11:50 4.5ft 6s 5s 20 25 mph 1027.7mb 71f 65f
11:40  -   -   -  20 22 mph 1027.8mb 71f 65f
11:30  -   -   -  20 22 mph 1028mb 71f 64f
11:20  -   -   -  18 22 mph 1028mb 71f 64f
11:10  -   -   -  18 22 mph 1028.3mb 71f 64f
11:00  -   -   -  18 25 mph 1028.3mb 71f 64f
10:50 4.5ft 6s 5s 18 22 mph 1028.5mb 71f 64f
10:40  -   -   -  18 22 mph 1028.7mb 71f 64f
10:30  -   -   -  18 22 mph 1028.7mb - -
10:20  -   -   -  18 22 mph 1028.8mb 71f 63f
10:10  -   -   -  18 22 mph 1028.5mb 71f 63f
10:00  -   -   -  18 22 mph 1028.7mb 71f 63f
9:50 4.5ft 5s 5s 18 25 mph 1028.3mb 71f 64f
9:40 4.5ft  -  5s 18 22 mph 1028.3mb 71f 64f
9:30  -   -   -  16 20 mph 1028.3mb 71f 64f
9:20  -   -   -  16 20 mph 1028.3mb 71f 64f
9:10  -   -   -  16 20 mph 1028.3mb 71f 64f
9:00  -   -   -  16 20 mph 1028mb 71f 63f
8:50 4.5ft 5s 5s 13 20 mph 1028mb 71f 64f
8:40  -   -   -  16 20 mph 1027.8mb 71f 64f
8:30  -   -   -  16 20 mph 1027.5mb 71f 64f
8:20  -   -   -  16 20 mph 1027.5mb 71f 64f
8:10  -   -   -  16 20 mph 1027.3mb 71f 63f
8:00  -   -   -  18 22 mph 1027.2mb 71f 63f
7:50 4.5ft 5s 5s 18 20 mph 1027mb 71f 64f
7:40  -   -   -  16 20 mph 1027mb 71f 64f
7:30  -   -   -  18 20 mph 1027mb 71f 64f
7:20  -   -   -  18 22 mph 1026.8mb 71f 64f
7:10  -   -   -  18 22 mph 1026.7mb 71f 64f
7:00  -   -   -  18 22 mph 1026.8mb 71f 64f
6:50 4.5ft 6s 5s 20 25 mph 1026.7mb 71f 64f
6:40 4.5ft  -  5s 20 22 mph 1026.8mb 70f 64f
6:30  -   -   -  18 22 mph 1026.8mb 70f 64f
6:20  -   -   -  18 22 mph 1026.7mb 70f 64f
6:10  -   -   -  18 22 mph 1026.5mb 70f 64f
6:00  -   -   -  18 22 mph 1026.3mb 70f 65f
5:50 3.5ft 11s 4s 18 20 mph 1026.3mb 70f 65f
5:40 3.5ft  -  4s 18 20 mph 1026.3mb 70f 64f
5:30  -   -   -  16 20 mph 1026.2mb 70f 64f
5:20  -   -   -  16 22 mph 1026.2mb 70f 64f
5:10  -   -   -  16 18 mph 1026mb 70f 64f
5:00  -   -   -  16 20 mph 1026.2mb 69f 64f
4:50 4ft 11s 5s 16 20 mph 1025.8mb 69f 65f
4:40 4ft  -  5s 16 20 mph 1025.8mb 69f 65f
4:30  -   -   -  16 20 mph 1025.8mb 69f 64f
4:20  -   -   -  16 20 mph 1025.8mb 69f 64f
4:10  -   -   -  16 18 mph 1025.8mb 69f 65f
4:00  -   -   -  16 18 mph 1025.8mb 69f 65f
3:50 3.5ft 10s 4s 16 18 mph 1025.8mb 69f -
3:40 3.5ft  -  4s 16 20 mph 1025.8mb 69f 65f
3:30  -   -   -  16 20 mph 1025.8mb 69f 65f
3:20  -   -   -  18 20 mph 1025.8mb 69f 65f
3:10  -   -   -  16 18 mph 1025.8mb 69f 65f
3:00  -   -   -  16 18 mph 1025.8mb 69f 65f
2:50 4ft 7s 5s 13 18 mph 1025.8mb 69f 65f
2:40 4ft  -  5s 16 18 mph 1026mb 69f 65f
2:30  -   -   -  13 18 mph 1026mb 69f 65f
2:20  -   -   -  13 18 mph 1025.8mb 69f 65f
2:10  -   -   -  16 18 mph 1025.8mb 68f 65f
2:00  -   -   -  16 18 mph 1025.8mb 68f 65f
1:50 4ft 10s 5s 16 20 mph 1025.8mb 68f 65f
1:40  -   -   -  13 18 mph 1025.8mb 68f 65f
1:30  -   -   -  13 18 mph 1025.8mb 69f 65f
1:20  -   -   -  13 16 mph 1025.7mb 70f 65f
1:10  -   -   -  13 16 mph 1025.7mb 70f 66f
1:00  -   -   -  11 16 mph 1025.8mb 70f 66f
12:50 4ft 11s 5s 11 16 mph 1026mb 70f 65f
12:40 4ft  -  5s 11 16 mph 1025.8mb 70f 65f
12:30  -   -   -  11 16 mph 1025.8mb 70f 65f
12:20  -   -   -  11 16 mph 1025.8mb 70f 65f
12:10  -   -   -  13 16 mph 1026mb 70f 65f
12:00  -   -   -  13 16 mph 1026mb 70f 65f
So 01/15 11:50 4ft 11s 5s 13 16 mph 1026.2mb 70f 65f
11:40  -   -   -  13 16 mph 1026.2mb 70f 65f
11:30  -   -   -  13 16 mph 1026mb 70f 65f
11:20  -   -   -  13 18 mph 1026.2mb 70f 65f
11:10  -   -   -  13 16 mph 1026.2mb 70f 65f
11:00  -   -   -  13 16 mph 1026.2mb 70f 65f
10:50 4ft 11s 5s 13 16 mph 1026.2mb 69f 65f
10:40 4ft  -  5s 13 18 mph 1026mb 69f 65f
10:30  -   -   -  13 16 mph 1026.2mb 69f 65f
10:20  -   -   -  13 16 mph 1026.2mb 69f 66f
10:10  -   -   -  11 16 mph 1026.2mb 69f 65f
10:00  -   -   -  11 16 mph 1026.2mb 69f 65f
9:50 3.5ft 11s 5s 11 16 mph 1026.3mb 69f 65f
9:40 3.5ft  -  5s 13 16 mph 1026.3mb 69f 65f
9:30  -   -   -  13 16 mph 1026.3mb 68f 65f
9:20  -   -   -  13 16 mph 1026.3mb 68f 65f
9:10  -   -   -  13 16 mph 1026.3mb 68f 64f
9:00  -   -   -  13 18 mph 1026.3mb 68f 64f
8:50 3.5ft 11s 5s 13 16 mph 1026.2mb 68f 64f
8:40  -   -   -  16 18 mph 1026.2mb 68f 64f
8:20  -   -   -  16 20 mph 1026.2mb 68f 64f
8:10  -   -   -  16 20 mph 1026.2mb 69f 63f
8:00  -   -   -  16 20 mph 1026.2mb 69f 63f
7:50 3.5ft 11s 5s 16 20 mph 1026.2mb 69f 63f
7:40  -   -   -  16 20 mph 1026.2mb 69f 64f
7:30  -   -   -  16 18 mph 1026.2mb 69f 64f